STARLINK-3746, 52268

Orbit data source: Space-Track

STARLINK-3746, 52268 is a payload satellite owned by SpaceX/Seattle (US) in LEO that was launched on Thu, 21 Apr 2022 UTC via an FALCON 9 launch vehicle from the Air Force Eastern Test Range (AFETR). Payload-class satellites include a variety of spacecraft equipped with specific instruments for various scientific and technological missions. These include communications satellites like Starlink; space stations such as the ISS; scientific satellites like the Hubble; Earth observation satellites from companies like Planet Labs, Umbra, and HawkEye 360; GPS; miniature CubeSats for education and research; and military/defense satellites.

Loading next visibility...
Identifier
52268, 2022-041H
Orbit
LEO
Country
Flag of USUS
Related business
Manufacturer
SpaceX/Seattle
Mission
Operational Commercial Communications
Bus & Motor
STARLINK, Unknown motor
Mass
297 kg wet, ~275 kg dry
Launch date (UTC)
2022-04-21 (4 years ago)
Launch vehicle
FALCON 9
Launch site
Air Force Eastern Test Range (AFETR)
Object type
Payload
Rocket body
Debris
Shape & HBR
Box + 1 Pan, 10.1 m
Radar Cross Section
11.087 m², Large (>1 m²)

Expand to show TLE details & history
Last TLE update: 7 hours ago

TLE from 7 hours ago
0 STARLINK-3746
1 52268U 22041H   26221.76662145  .00000993  00000-0  40519-4 0  9996
2 52268  53.1612 134.5057 0001288  80.7035 279.4113 15.34397961237579
Epoch: 2026-08-09T18:23Z
TLE epoch observation values (Epoch: 2026-08-09T18:23:56.093Z)
Latitude
-0.00003°
Longitude
-99.73694°
Altitude
463.467 km
Speed
7.636 km/s
True Right ascension
08h 58m 01s
True Declination
0° 00' 00"
Sunlit
Object was in daylight at epoch
Visualization orbit readout
Latitude
Unknown
Longitude
Unknown
Altitude
Unknown
Speed
Unknown
Apparent Right ascension
Unknown
Apparent Declination
Unknown
Sunlit
N/A
Visualization observer readout
Local Sidereal Time
15:48:22
Azimuth
Unknown
Elevation
Unknown
Doppler factor
Unknown
Orbital elements
Apogee altitude
463.847 km
Perigee altitude
462.085 km
Semi-major axis
6,841.103 km
Eccentricity
0.00013
Inclination
53.1612°
RAAN
134.5057°
Arg. of periapsis
80.7035°
True anomaly
279.39674°
Mean anomaly
279.4113°
Eccentric anomaly
279.40402°
Mean motion
3.83578 °/min
Orbital period
93.85 mins
BSTAR
0.000040519
Loading maneuver chart data...
Computing Atmospheric mass density...
Loading historical data...
Loading historical data...
Loading historical data...
Loading historical data...
Loading historical data...
Loading historical data...
Loading historical data...

Documentation

Showing up to 5 results
|